Location: Bushrod
(6.3500°N, 10.7833°W)
Time: 13:03:20
(UTC+00:00)

SL-16 R/B - Pass Details

Date: 17 September 2019
Orbit: 842 x 846 km, 71.0° (Epoch: 20 October)

Event Time Altitude Azimuth Distance (km) Brightness Sun altitude
Rises 19:30:27 0° 342° (NNW) 3,392 5.6 -12.9°
Reaches altitude 10° 19:32:53 10° 341° (NNW) 2,458 4.9 -13.5°
Maximum altitude 19:38:32 79° 255° (WSW) 861 2.3 -14.9°
Drops below altitude 10° 19:44:11 10° 169° (SSE) 2,461 4.5 -16.3°
Sets 19:46:37 0° 167° (SSE) 3,397 5.2 -16.9°
